Date,TemperatureHighF,TemperatureAvgF,TemperatureLowF,DewpointHighF,DewpointAvgF,DewpointLowF,HumidityHigh,HumidityAvg,HumidityLow,PressureMaxIn,PressureMinIn,WindSpeedMaxMPH,WindSpeedAvgMPH,GustSpeedMaxMPH,PrecipitationSumIn
2014-1-1,15,11,8,13,8,5,91,88,84,30.19,30.11,10,5,17,0.00
2014-1-2,15,9,-1,10,6,-4,87,84,76,30.35,30.11,7,2,17,0.00
2014-1-3,21,8,-8,18,4,-11,88,85,81,30.34,29.78,18,6,28,0.00
2014-1-4,31,27,21,29,22,-100,96,87,78,29.94,29.71,20,8,24,0.00
2014-1-5,21,10,-6,19,4,-13,93,78,66,30.08,29.94,14,6,24,0.00
2014-1-6,-7,-11,-16,-12,-18,-23,81,72,67,30.19,30.08,13,6,20,0.00
2014-1-7,5,-2,-9,-1,-8,-15,87,79,72,30.22,30.12,11,3,15,0.00
2014-1-8,9,2,-6,2,-3,-9,87,80,68,30.41,30.18,4,0,6,0.00
2014-1-9,26,10,-3,25,7,-6,97,88,80,30.41,30.06,10,3,14,0.00
2014-1-10,39,34,27,39,33,26,100,99,97,30.04,29.40,14,6,21,0.70
2014-1-11,37,33,30,37,30,-100,100,93,82,29.72,29.37,14,5,19,0.10
2014-1-12,42,35,28,36,32,27,95,87,70,29.75,29.49,14,6,24,0.00
2014-1-13,41,35,28,36,32,25,93,87,81,29.69,29.49,10,4,16,0.00
2014-1-14,36,29,19,35,25,16,97,87,78,29.87,29.50,20,7,27,0.01
2014-1-15,22,15,9,17,10,5,85,81,74,30.04,29.73,15,4,22,0.01
2014-1-16,36,27,14,34,22,8,95,82,66,29.69,29.41,17,9,24,0.01
2014-1-17,16,12,7,12,7,2,85,81,77,29.93,29.68,10,5,17,0.01
2014-1-18,21,14,7,19,10,-100,94,89,86,29.87,29.58,15,5,21,0.00
2014-1-19,40,25,7,33,21,5,92,85,76,29.82,29.48,14,7,21,0.00
2014-1-20,36,28,13,32,25,11,92,85,77,30.05,29.58,12,4,21,0.00
2014-1-21,12,4,-2,9,-2,-6,89,77,67,30.27,30.06,13,2,20,0.00
2014-1-22,16,9,-1,11,3,-9,86,79,68,30.17,29.83,13,6,18,0.00
2014-1-23,4,-2,-7,-4,-9,-12,81,72,67,30.54,30.17,11,4,16,0.00
2014-1-24,31,15,-7,29,8,-11,94,76,65,30.48,29.42,24,12,30,0.00
2014-1-25,35,18,7,33,8,-100,94,69,54,29.81,29.39,15,6,26,0.00
2014-1-26,33,20,3,27,15,-1,94,83,71,29.84,29.31,24,8,31,0.02
2014-1-27,3,-4,-8,-1,-10,-15,83,72,63,30.35,29.86,15,6,20,0.01
2014-1-28,6,-3,-12,-2,-9,-17,82,75,64,30.36,30.16,10,2,17,0.00
2014-1-29,26,15,-1,14,6,-5,82,68,57,30.12,29.84,14,6,18,0.00
2014-1-30,33,26,17,29,20,12,94,77,64,29.87,29.54,19,9,29,0.00
2014-1-31,17,13,9,13,8,5,86,80,71,30.09,29.87,6,2,10,0.00
2014-2-1,25,20,16,22,16,-100,93,90,84,30.03,29.81,6,2,10,0.01
2014-2-2,19,8,-6,17,5,-10,100,85,77,30.24,30.03,6,1,9,0.01
2014-2-3,15,1,-13,6,-4,-17,86,79,67,30.30,30.22,4,0,6,0.00
2014-2-4,22,14,4,17,9,0,92,82,73,30.31,30.05,8,2,14,0.00
2014-2-5,22,16,1,17,13,-4,93,87,78,30.38,30.01,11,4,15,0.00
2014-2-6,6,-1,-8,-2,-6,-12,85,78,69,30.39,30.30,11,4,14,0.00
2014-2-7,12,3,-7,4,-2,-10,86,78,70,30.31,30.22,11,6,20,0.00
2014-2-8,16,12,5,14,9,0,92,87,77,30.23,30.03,9,2,10,0.00
2014-2-9,16,8,-3,10,5,-8,92,84,76,30.25,30.04,8,2,13,0.00
2014-2-10,7,-2,-10,0,-7,-13,85,78,68,30.40,30.24,7,2,10,0.00
2014-2-11,9,-3,-16,1,-8,-20,84,77,65,30.43,30.25,7,1,8,0.00
2014-2-12,21,12,-3,16,7,-7,85,80,74,30.25,29.92,9,4,12,0.00
2014-2-13,37,23,13,32,18,9,87,80,70,29.92,29.47,16,7,23,0.00
2014-2-14,20,14,8,12,8,4,85,79,71,29.91,29.59,12,2,13,0.00
2014-2-15,18,12,1,16,7,-100,93,83,74,30.00,29.85,9,3,14,0.00
2014-2-16,24,19,12,18,16,10,100,85,75,30.16,29.87,8,2,13,0.00
2014-2-17,34,25,22,32,23,18,96,90,83,30.11,29.62,22,8,33,0.00
2014-2-18,45,34,19,34,28,18,96,80,61,29.84,29.55,16,5,21,0.05
2014-2-19,39,34,30,32,30,26,91,84,72,29.88,29.60,8,3,11,0.01
2014-2-20,45,37,35,45,35,31,100,95,84,29.79,29.08,27,10,38,0.90
2014-2-21,35,29,24,32,22,16,93,75,57,29.77,29.28,21,9,32,0.01
2014-2-22,31,25,18,20,15,-100,78,69,56,30.02,29.77,8,3,10,0.00
2014-2-23,25,18,14,14,10,8,77,70,58,30.19,30.02,9,4,15,0.00
2014-2-24,22,16,10,13,9,6,87,75,62,30.25,30.16,8,3,14,0.00
2014-2-25,16,12,4,13,8,-2,89,86,73,30.19,30.16,9,3,11,0.00
2014-2-26,20,7,-4,12,-1,-9,79,70,55,30.21,29.62,17,7,23,0.00
2014-2-27,19,6,0,11,-5,-10,71,59,45,30.09,29.63,18,4,26,0.00
2014-3-1,27,18,10,24,13,-100,93,82,65,30.27,29.93,10,3,15,0.00
2014-3-2,10,5,-1,7,-3,-11,88,68,56,30.37,30.26,10,3,15,0.00
2014-3-3,13,2,-10,4,-6,-16,81,69,63,30.44,30.27,5,1,8,0.01
2014-3-4,25,18,10,15,11,4,83,75,61,30.29,30.08,10,3,11,0.01
2014-3-5,25,21,16,19,16,11,92,82,73,30.34,30.14,14,6,19,0.00
2014-3-6,26,18,9,19,14,7,91,83,75,30.31,29.98,7,3,14,0.00
2014-3-7,43,32,17,34,26,14,92,81,66,29.97,29.79,10,2,13,0.01
2014-3-8,36,32,25,34,27,-100,96,87,74,30.18,29.92,6,2,11,0.02
2014-3-9,41,31,20,36,27,18,93,85,79,30.16,29.73,18,7,23,0.01
2014-3-10,54,44,38,45,38,34,95,80,69,29.72,29.60,12,4,18,0.00
2014-3-11,45,40,36,41,37,34,99,90,76,29.69,29.56,13,3,19,0.00
2014-3-12,36,31,25,35,28,21,97,87,70,30.01,29.66,10,3,17,0.09
2014-3-13,42,31,22,38,28,18,93,86,79,30.01,29.74,14,3,20,0.01
2014-3-14,52,43,38,40,36,33,87,76,62,29.81,29.52,19,7,22,0.00
2014-3-15,43,36,31,34,28,-100,90,79,66,30.14,29.81,9,3,14,0.00
2014-3-16,32,25,19,29,18,12,91,74,53,30.29,30.10,21,10,25,0.00
2014-3-17,39,27,15,29,18,-100,92,72,57,30.07,29.65,17,5,18,0.00
2014-3-18,50,41,32,43,36,28,92,83,74,29.73,29.52,25,8,29,0.00
2014-3-19,42,38,34,40,36,29,99,93,78,29.94,29.46,12,4,18,0.15
2014-3-20,48,38,29,35,29,-100,96,77,50,29.98,29.89,4,1,9,0.01
2014-3-21,57,43,33,47,35,-100,90,78,62,29.91,29.60,18,6,23,0.00
2014-3-22,40,35,28,34,25,-100,86,70,45,30.25,29.85,12,4,15,0.00
2014-3-23,32,25,18,16,13,11,77,61,43,30.38,30.27,11,3,15,0.00
2014-3-24,37,28,19,27,17,12,88,66,45,30.30,30.01,11,2,14,0.00
2014-3-25,31,25,18,28,15,8,91,67,43,30.17,29.97,15,5,24,0.00
2014-3-26,40,29,16,27,19,10,86,67,52,30.21,29.85,18,7,24,0.00
2014-3-27,52,43,36,50,39,26,97,87,58,29.85,29.31,20,9,26,0.24
2014-3-28,52,39,36,50,36,32,98,88,78,30.08,29.32,18,4,32,0.01
2014-3-29,48,39,34,34,31,-100,93,75,55,30.16,30.08,9,2,17,0.01
2014-3-30,59,45,30,43,35,24,87,70,55,30.17,29.90,14,6,22,0.00
2014-3-31,65,54,43,47,42,37,84,67,46,29.93,29.56,25,11,32,0.00
2014-4-1,57,38,28,45,26,-100,75,66,51,30.00,29.61,20,9,27,0.00
2014-4-2,51,41,31,39,33,28,90,74,61,30.07,29.92,12,5,18,0.00
2014-4-3,41,40,36,40,37,31,96,91,72,29.93,29.55,15,8,25,0.35
2014-4-4,45,39,37,45,34,29,99,83,72,29.97,29.37,16,8,27,0.01
2014-4-5,51,41,29,36,29,-100,94,69,47,30.14,29.97,10,2,12,0.01
2014-4-6,56,45,34,40,36,30,89,70,47,30.05,29.85,12,3,17,0.00
2014-4-7,62,51,39,47,39,35,84,66,40,29.85,29.55,7,1,13,0.00
2014-4-8,61,50,41,45,38,33,90,65,38,29.86,29.61,13,3,15,0.00
2014-4-9,64,49,32,38,34,30,92,58,31,29.96,29.74,17,5,21,0.00
2014-4-10,66,56,48,44,36,26,63,48,22,29.88,29.59,17,5,21,0.00
2014-4-11,71,56,37,37,33,30,81,46,25,29.98,29.85,16,3,23,0.00
2014-4-12,79,64,49,60,48,-100,71,59,44,29.92,29.55,18,8,26,0.01
2014-4-13,67,61,54,62,58,51,99,89,69,29.65,29.30,17,4,25,0.70
2014-4-14,63,38,31,60,36,26,97,91,83,29.95,29.28,11,4,27,0.25
2014-4-15,40,33,24,28,22,19,93,66,44,30.10,29.95,7,1,12,0.01
2014-4-16,55,42,29,36,31,24,83,65,44,30.13,29.93,24,10,31,0.01
2014-4-17,57,49,43,43,39,34,82,68,56,30.18,29.96,12,5,23,0.00
2014-4-18,63,49,33,41,36,31,95,65,36,30.28,30.18,9,1,14,0.00
2014-4-19,71,54,35,41,34,-100,83,53,28,30.27,30.08,15,5,20,0.00
2014-4-20,80,65,49,49,45,40,73,51,30,30.11,29.91,16,6,20,0.00
2014-4-21,68,62,56,63,54,47,97,77,49,29.93,29.76,9,2,15,0.22
2014-4-22,61,51,42,50,38,33,83,64,36,30.01,29.78,9,2,19,0.01
2014-4-23,55,44,34,41,34,29,85,68,42,30.10,29.91,11,2,15,0.06
2014-4-24,63,51,41,55,44,36,98,79,46,29.94,29.57,24,5,29,0.37
2014-4-25,70,57,44,52,46,41,98,72,35,29.78,29.56,12,3,21,0.23
2014-4-26,67,54,42,48,40,-100,82,61,38,29.88,29.77,19,7,25,0.00
2014-4-27,66,52,42,52,43,33,96,75,49,29.91,29.64,15,8,32,0.76
2014-4-28,55,52,46,54,49,44,96,91,79,29.66,29.38,18,6,28,0.99
2014-4-29,60,53,50,55,50,47,99,91,76,29.55,29.36,15,4,22,0.05
2014-4-30,50,44,40,48,41,38,98,87,76,29.70,29.56,12,4,14,0.03
2014-5-1,48,45,41,45,42,39,97,91,86,29.77,29.59,13,6,21,0.10
2014-5-2,57,50,45,47,45,42,96,81,66,29.77,29.59,13,4,20,0.01
2014-5-3,69,56,46,46,42,-100,87,62,37,29.84,29.61,14,3,22,0.00
2014-5-4,58,53,48,44,39,33,80,59,38,30.01,29.84,10,2,16,0.02
2014-5-5,64,54,46,42,37,31,70,53,37,29.93,29.81,19,6,24,0.01
2014-5-6,71,56,43,45,40,35,77,56,34,29.90,29.71,21,8,28,0.00
2014-5-7,58,58,58,44,44,43,60,59,58,29.72,29.71,8,7,17,0.00
2014-5-13,54,52,49,48,47,45,86,81,78,30.09,30.00,7,2,14,1.39
2014-5-14,56,50,44,46,44,41,90,78,62,30.14,29.97,4,0,13,0.03
2014-5-15,57,49,45,46,44,41,96,85,59,29.98,29.89,8,1,12,0.15
2014-5-16,52,44,37,44,40,36,97,86,63,30.01,29.90,6,1,15,0.52
2014-5-17,60,50,40,42,36,-100,92,65,40,30.09,30.01,8,1,14,0.02
2014-5-18,70,58,44,47,43,38,81,58,36,30.16,30.06,11,2,15,0.00
2014-5-19,70,59,51,58,46,-100,90,67,52,30.12,29.80,21,5,26,0.05
2014-5-20,85,72,62,70,62,-100,92,73,54,29.82,29.72,13,3,17,0.03
2014-5-21,86,76,64,68,61,50,98,65,37,29.91,29.73,9,1,15,0.01
2014-5-22,73,63,52,54,49,-100,90,63,39,30.08,29.92,5,0,13,0.01
2014-5-23,75,64,51,56,50,47,93,63,39,30.13,30.03,5,1,10,0.00
2014-5-24,76,64,48,50,45,-100,87,54,32,30.16,30.02,5,0,8,0.00
2014-5-25,84,71,53,62,54,48,84,57,35,30.05,29.90,12,1,14,0.00
2014-5-26,87,74,66,70,65,60,96,76,48,29.96,29.83,11,1,21,0.07
2014-5-27,83,74,67,71,68,63,97,81,61,29.87,29.79,12,2,17,0.01
2014-5-28,83,69,61,70,65,54,98,88,62,29.96,29.82,7,0,12,0.38
2014-5-29,84,70,57,70,60,51,90,73,56,30.03,29.94,7,2,12,0.36
2014-5-30,88,71,58,66,57,50,89,66,34,30.08,29.98,5,1,10,0.00
2014-5-31,89,76,60,62,56,-100,82,55,33,30.07,29.92,6,1,16,0.00
2014-6-1,88,79,70,72,66,55,92,64,45,29.98,29.74,20,4,20,0.38
2014-6-2,81,75,68,71,68,66,95,79,64,29.78,29.70,15,4,29,0.21
2014-6-3,80,72,64,67,59,54,83,64,41,29.92,29.78,7,1,14,0.10
2014-6-4,69,65,60,64,61,57,97,87,74,29.84,29.65,12,2,16,0.15
2014-6-5,78,68,54,59,52,46,99,62,33,29.92,29.83,7,1,18,0.01
2014-6-6,83,71,56,60,54,48,78,56,38,29.92,29.84,9,0,12,0.01
2014-6-7,81,70,61,64,57,48,96,65,46,29.91,29.75,4,0,11,0.27
2014-6-8,69,66,61,61,56,46,83,72,58,29.96,29.94,0,0,6,0.24
2014-6-9,81,69,51,63,54,43,81,61,44,29.95,29.79,5,0,8,0.01
2014-6-10,67,63,59,63,58,51,97,84,68,29.84,29.70,7,2,13,0.20
2014-6-11,72,64,60,65,62,59,99,92,78,29.71,29.62,4,1,11,0.75
2014-6-12,75,66,57,67,59,49,100,80,53,29.85,29.68,7,1,17,0.01
2014-6-13,75,64,50,52,47,43,87,56,35,29.96,29.85,8,1,12,0.01
2014-6-14,79,66,53,55,49,-100,88,61,39,30.01,29.83,10,1,14,0.00
2014-6-15,85,74,62,68,60,50,74,63,52,29.87,29.66,15,4,19,0.00
2014-6-16,88,75,63,73,67,61,95,78,55,29.98,29.72,5,0,13,0.00
2014-6-17,89,80,68,76,71,65,93,76,59,29.83,29.69,12,2,19,0.04
2014-6-18,80,75,68,74,71,67,96,89,80,29.89,29.77,11,1,22,0.18
2014-6-19,82,71,66,76,69,65,99,93,79,29.99,29.87,11,1,20,4.11
2014-6-20,84,75,68,73,70,66,99,84,57,29.93,29.86,7,1,11,1.29
2014-6-21,84,72,66,75,66,-100,98,86,68,29.89,29.76,2,0,10,0.00
2014-6-22,82,72,64,73,68,64,100,89,66,29.85,29.73,6,0,16,0.45
2014-6-23,79,72,66,72,68,66,100,91,74,29.79,29.74,5,0,8,0.09
2014-6-24,84,75,68,72,68,65,99,80,56,29.85,29.77,1,0,10,0.01
2014-6-25,85,75,66,70,67,64,95,77,53,29.95,29.84,5,0,9,0.00
2014-6-26,82,71,62,72,67,62,99,88,69,29.99,29.88,4,0,8,0.00
2014-6-27,85,76,67,74,70,66,96,82,66,29.92,29.84,2,0,11,0.00
2014-6-28,83,75,70,75,69,-100,96,84,74,29.91,29.78,8,0,13,0.00
2014-6-29,83,75,67,75,71,67,99,89,74,29.91,29.73,7,0,17,0.77
2014-6-30,86,73,65,77,71,65,99,93,73,29.79,29.57,11,0,32,1.93
2014-7-1,79,71,65,67,66,61,100,85,66,29.75,29.59,11,2,18,0.81
2014-7-2,67,63,58,61,59,55,98,86,75,29.96,29.75,3,0,13,0.06
2014-7-3,75,66,56,62,57,51,100,77,45,30.12,29.97,4,1,10,0.08
2014-7-4,78,68,54,59,56,53,97,69,47,30.24,30.14,5,0,8,0.00
2014-7-5,73,65,58,63,57,-100,92,79,64,30.17,29.98,9,1,14,0.00
2014-7-6,86,75,63,76,70,62,96,84,64,29.97,29.66,14,4,22,0.00
2014-7-7,85,78,71,73,70,67,99,79,57,29.71,29.64,7,1,13,0.01
2014-7-8,80,74,67,69,65,60,90,74,56,29.77,29.55,15,2,18,0.00
2014-7-9,77,68,59,62,60,57,94,77,52,29.98,29.78,3,1,12,0.00
2014-7-10,80,71,59,65,61,56,93,72,54,30.10,29.98,5,0,8,0.00
2014-7-11,78,70,60,68,63,58,93,79,63,30.11,29.97,4,0,5,0.00
2014-7-12,82,74,71,77,71,67,98,91,79,30.01,29.75,3,0,17,0.83
2014-7-13,83,70,64,72,68,64,99,92,64,29.90,29.79,3,0,11,0.93
2014-7-14,78,69,60,68,60,51,100,76,46,29.84,29.76,11,1,22,0.12
2014-7-15,69,60,52,58,54,51,97,81,64,29.92,29.83,8,2,14,0.00
2014-7-16,74,63,53,59,55,52,98,78,52,29.97,29.92,4,0,10,0.00
2014-7-17,77,65,53,63,58,52,98,81,56,30.03,29.96,5,0,9,0.00
2014-7-18,78,69,58,64,61,57,97,77,57,30.09,29.99,0,0,6,0.00
2014-7-19,78,69,58,65,60,57,96,75,53,30.02,29.93,0,0,6,0.00
2014-7-20,80,67,59,68,62,58,96,86,66,29.99,29.92,0,0,7,0.00
2014-7-21,85,72,64,72,67,62,95,85,66,30.01,29.93,0,0,11,0.00
2014-7-22,89,79,70,81,74,67,95,86,74,29.95,29.85,9,1,13,0.00
2014-7-23,79,73,63,69,62,58,94,70,53,30.10,29.97,4,0,13,0.00
2014-7-24,78,67,54,60,56,52,92,71,48,30.11,29.93,2,0,7,0.00
2014-7-25,70,64,59,65,60,55,95,87,81,30.01,29.80,15,1,17,0.16
2014-7-26,82,73,67,74,68,63,96,81,75,29.82,29.73,2,0,7,0.01
2014-7-27,79,73,66,72,66,60,100,80,56,29.87,29.71,10,2,22,0.00
2014-7-28,73,65,56,61,56,54,95,76,53,30.05,29.88,6,1,14,0.00
2014-7-29,79,67,55,64,59,54,96,76,54,30.02,29.94,4,0,12,0.00
2014-7-30,79,68,61,65,61,59,94,80,55,29.99,29.93,3,0,9,0.00
2014-7-31,81,68,60,66,60,57,98,77,55,29.99,29.94,10,1,11,0.00
2014-8-1,83,72,60,66,64,59,98,78,53,30.05,29.96,4,0,7,0.01
2014-8-2,83,69,58,71,64,58,100,86,59,30.09,30.00,0,0,4,1.01
2014-8-3,83,73,63,69,66,63,99,79,56,30.09,29.99,6,0,12,0.05
2014-8-4,84,72,65,71,67,64,98,85,61,30.04,29.90,3,0,11,1.13
2014-8-5,78,70,65,70,67,65,100,91,75,29.99,29.94,0,0,1,0.01
2014-8-6,79,70,63,67,65,61,99,83,64,30.02,29.94,1,0,3,0.01
2014-8-7,78,69,61,67,61,55,88,79,64,30.00,29.92,8,2,13,0.00
2014-8-8,80,71,63,68,64,60,93,79,58,29.99,29.93,11,1,16,0.00
2014-8-9,81,71,63,67,63,60,94,75,57,30.02,29.96,7,1,13,0.00
2014-8-10,82,72,62,68,65,59,96,79,60,29.98,29.89,0,0,6,0.00
2014-8-11,81,73,66,72,66,60,98,81,61,29.90,29.75,9,1,16,0.01
2014-8-12,75,67,60,61,58,55,92,73,54,29.93,29.78,7,1,18,0.00
2014-8-13,82,70,55,67,61,53,95,74,54,30.00,29.92,8,0,15,0.00
2014-8-14,77,67,58,65,59,56,96,77,53,30.04,29.96,2,0,7,0.00
2014-8-15,74,66,52,65,59,49,96,79,66,30.01,29.88,5,0,8,0.00
2014-8-16,76,67,62,71,65,61,98,90,80,29.88,29.81,1,0,6,0.00
2014-8-17,81,71,61,72,67,61,100,88,72,29.91,29.83,2,0,11,0.01
2014-8-18,82,72,62,72,68,62,100,87,69,29.87,29.68,6,1,9,0.01
2014-8-19,85,75,70,74,70,65,97,84,57,29.72,29.62,13,2,15,0.00
2014-8-20,83,73,63,73,68,62,99,84,67,29.87,29.72,10,1,12,0.00
2014-8-21,80,74,70,76,72,68,98,95,87,29.88,29.78,3,0,10,0.34
2014-8-22,84,77,72,78,75,71,100,94,79,29.89,29.78,6,0,13,0.02
2014-8-23,80,74,70,78,73,69,100,97,86,29.93,29.82,2,0,10,0.65
2014-8-24,90,78,68,81,75,68,100,91,74,29.91,29.84,6,0,6,0.01
2014-8-25,85,77,70,80,75,69,100,94,77,29.94,29.87,14,1,17,0.55
2014-8-26,82,74,68,73,70,66,99,87,66,30.05,29.93,10,0,20,0.01
2014-8-27,79,72,65,68,65,63,96,80,61,30.08,30.00,0,0,1,0.00
2014-8-28,77,69,63,68,65,62,98,88,71,30.05,29.91,1,0,8,0.40
2014-8-29,86,75,67,77,71,66,100,89,69,29.92,29.75,3,0,11,0.28
2014-8-30,81,72,68,71,68,67,98,87,70,29.83,29.74,9,2,15,0.01
2014-8-31,85,75,63,74,70,63,100,87,63,29.87,29.73,4,0,9,0.01
2014-9-1,81,74,66,72,69,65,97,84,69,29.80,29.63,12,2,16,0.02